sat.trackr.live / text

‹ back to catalog

STARLINK-33617

NORAD 63373 · 2025-063L

PAYLOAD ACTIVE UNKNOWN

§ Identity

Operator
Country
US
Launch date
2025-03-26
Launch site
AFWTR
Launch vehicle
Mass (kg)
RCS (m²)

Purposes: comms

External: N2YO · Heavens-Above · Gunter

§ Orbital elements

Epoch: 2026-09-20T07:07:55.527744Z

Period
93.85 min
Inclination
53.1567°
Eccentricity
0.0001173
Mean motion
15.34412822 rev/d
Perigee alt
461.9 km
Apogee alt
463.5 km
Semi-major
6,840.8 km
B*
7.1703e-4
RAAN
222.9298°
Arg perigee
96.7967°
Mean anomaly
263.3169°
Rev number
8,458

§ Raw data

STARLINK-336171 63373U 25063L   26263.29717046  .00023937  00000+0  71703-3 0  99972 63373  53.1567 222.9298 0001173  96.7967 263.3169 15.34412822 84588

JSON: /api/v1/satellites/63373 · /tle

For live sub-satellite position, see the globe view (requires WebGL).

§ Visibility from observer

Set your observer location to see the next 7 days of passes ≥ 10°. The values pass through the URL so the page stays shareable.

No JS? Fill the form by hand. The geolocation button needs JavaScript.